Wind_Speed
20 24 24 21 21 20 19 20 20 21 22 22 22 21 20 20 21 22 22 21 20 19 19 18 19 19 20 21 23 23 22 22 22 22 22 21 22 22 21 21 21 20 20 19 17 16 15 16 17 17 16 16 16 15 14 14 16 18 19 18 18 17 16 18 20 21 22 22 19 18 18 18 17 18 21 22 21 21 20 18 18 18 18 18 19
21 23 24 22 21 20 20 20 21 21 22 23 22 21 20 21 22 22 22 21 20 19 18 18 19 19 20 22 24 22 21 21 20 20 21 21 21 20 20 19 19 19 18 17 15 15 15 16 16 16 16 16 15 14 12 13 15 17 19 18 17 17 16 18 21 22 22 22 21 20 20 19 19 18 20 22 21 22 21 18 16 17 18 18 19
24 22 23 23 21 20 20 20 21 21 22 22 22 21 20 21 22 22 22 21 20 19 18 18 18 18 20 22 22 21 20 19 18 19 20 20 20 19 19 18 18 17 17 15 14 14 15 16 15 15 16 15 15 14 13 14 16 18 19 18 17 16 16 19 21 20 22 22 21 20 20 19 18 18 19 21 22 22 20 18 17 17 18 18 19
28 23 23 22 21 21 20 21 21 22 22 22 22 21 21 22 22 22 22 21 20 18 18 18 18 17 18 20 20 19 18 17 17 18 19 19 19 18 18 18 17 17 16 15 13 13 14 15 14 14 15 15 14 13 13 15 18 19 19 17 16 16 15 18 18 18 21 23 21 20 20 20 18 17 18 19 20 20 18 19 19 18 18 17 18
30 25 24 23 22 21 21 22 21 22 22 22 22 20 21 22 22 22 21 22 20 18 18 17 17 17 17 18 18 18 17 17 17 17 19 18 18 18 17 17 17 16 15 15 13 13 13 13 14 14 15 14 13 12 14 17 19 20 18 17 15 14 14 15 15 16 17 18 19 18 19 18 18 16 16 18 19 19 18 19 18 16 17 16 17
30 26 24 23 23 22 21 21 21 22 21 22 21 20 21 22 22 22 22 22 20 18 18 17 17 16 17 17 17 17 17 16 16 16 17 17 18 17 16 16 16 16 15 15 14 13 12 12 13 13 13 13 11 12 16 19 20 18 17 15 14 13 13 13 12 12 10 10 13 15 16 16 17 16 15 17 18 18 18 17 16 14 14 15 15
29 27 24 24 24 22 21 21 21 21 21 22 21 20 21 22 22 21 22 22 19 18 17 17 16 16 16 17 16 16 16 15 16 15 16 17 17 16 16 15 15 16 15 15 14 13 12 11 11 11 12 11 11 15 18 19 19 17 16 14 13 12 11 11 10 8 5 5 9 12 14 15 16 16 15 16 17 17 17 16 15 13 12 13 15
27 26 24 24 23 22 21 21 21 21 21 22 21 21 21 22 22 21 22 21 18 17 17 16 16 16 16 17 17 16 16 15 16 15 15 17 16 15 15 14 15 16 15 14 13 13 12 11 11 10 10 9 12 17 19 19 19 18 15 13 12 12 11 10 10 10 8 6 10 13 14 15 16 15 14 15 16 17 17 16 15 14 13 13 14
25 25 24 24 22 22 21 21 21 21 21 22 21 21 21 22 22 22 23 21 18 17 16 16 15 15 16 17 17 17 16 15 15 15 15 16 16 16 15 14 14 15 14 14 13 12 12 12 11 10 9 8 12 17 18 18 19 18 15 12 11 11 11 13 13 14 13 14 16 15 13 14 16 15 14 14 15 16 17 17 16 15 13 13 14
24 24 24 23 23 22 21 21 21 21 21 21 22 21 21 22 22 23 23 20 17 17 16 15 15 15 16 16 16 17 16 15 15 16 16 17 17 16 15 14 13 13 13 13 13 12 12 12 11 9 7 6 11 15 16 17 18 16 14 11 11 12 13 15 16 17 19 19 17 14 12 12 15 15 13 14 15 16 17 17 16 15 14 15 15
23 24 23 23 23 22 22 22 21 21 21 21 22 22 22 22 22 23 22 19 17 16 15 15 15 15 16 16 16 16 16 15 15 15 15 16 15 15 14 13 12 11 12 13 12 11 11 11 10 8 5 5 9 13 14 15 16 14 12 11 11 14 15 17 18 18 20 17 14 12 11 12 15 14 13 14 15 16 16 16 16 16 15 15 15
21 23 23 22 22 21 22 22 21 20 21 22 22 22 21 22 23 23 21 19 17 16 14 14 15 15 16 16 16 15 15 15 14 14 13 13 13 12 12 12 12 11 11 12 11 11 11 10 8 6 5 5 8 11 12 13 13 12 11 10 11 14 16 18 19 18 19 15 11 11 11 13 15 13 13 15 15 15 16 16 16 16 15 15 15
21 22 23 23 22 22 22 22 21 21 21 22 22 21 21 22 22 22 20 17 16 14 13 14 14 15 16 16 16 15 14 13 13 12 11 11 11 12 12 12 12 11 11 11 10 10 10 9 7 6 4 6 7 8 9 11 11 10 10 9 10 13 16 18 18 18 18 13 11 11 12 14 14 13 14 14 14 15 15 15 15 15 15 15 15
22 23 24 24 22 22 22 22 21 21 22 22 21 21 22 22 20 19 18 16 15 13 13 15 16 16 16 16 15 15 13 12 12 12 11 10 11 12 12 13 12 11 9 9 9 9 8 7 6 5 4 6 7 5 6 8 8 8 8 8 9 11 13 16 16 17 16 11 10 11 11 14 14 13 13 14 14 14 14 15 15 15 15 15 16
23 24 25 23 23 21 21 21 21 21 22 21 21 21 22 21 19 18 17 15 14 13 14 16 17 15 14 14 13 13 12 11 11 10 10 10 12 12 12 12 11 10 9 8 8 8 7 6 5 5 5 6 6 4 4 5 6 6 6 7 7 8 11 15 16 16 14 11 10 10 11 13 14 12 12 12 13 13 14 14 14 14 14 15 15
22 24 26 24 23 22 21 21 21 21 21 21 21 22 22 20 19 18 17 16 14 14 16 17 16 15 12 12 12 11 11 11 10 9 10 11 12 12 11 11 10 9 9 8 8 8 7 6 5 4 5 5 5 4 3 3 3 5 5 5 4 6 10 14 15 15 13 12 10 11 11 12 13 12 10 10 12 13 13 14 14 14 14 14 15
21 24 25 24 23 23 22 21 21 21 21 21 21 22 22 20 19 18 17 16 16 16 17 17 16 16 14 12 11 11 10 10 10 9 10 11 11 11 10 10 9 8 8 8 7 6 6 6 5 5 5 4 3 3 3 3 2 4 4 3 2 5 10 12 11 13 13 12 12 12 12 11 12 13 11 11 13 13 13 13 13 13 13 14 14
22 24 25 24 24 23 23 23 22 22 21 21 21 21 20 19 18 17 17 17 18 18 16 15 15 16 16 14 12 10 9 9 9 9 9 10 10 9 9 9 8 7 8 8 6 5 5 5 5 4 3 3 3 3 4 3 2 3 3 2 2 5 10 11 10 14 13 11 12 12 12 11 11 13 13 12 11 11 12 13 13 13 13 13 13
22 23 24 24 24 24 23 23 23 22 22 22 21 20 18 17 16 16 17 17 18 16 14 15 15 17 17 15 13 11 9 9 8 8 7 8 8 8 7 7 7 7 7 7 6 5 5 5 5 3 3 3 4 3 3 3 2 2 3 3 3 6 9 11 8 14 13 11 11 11 12 10 12 13 12 10 9 10 13 13 13 13 12 12 12
22 22 23 23 23 24 23 23 23 22 22 22 20 18 16 15 15 15 16 17 15 11 12 16 17 18 17 15 14 12 10 9 8 7 7 6 6 6 7 7 7 7 7 7 7 7 7 7 7 5 5 4 4 4 4 4 3 3 4 4 5 6 9 10 7 13 11 11 10 11 10 9 12 13 11 9 8 11 13 12 12 11 11 11 11
21 21 21 23 23 23 23 23 22 21 21 21 19 17 15 15 16 17 15 14 12 10 13 18 18 18 17 14 13 12 11 9 7 7 7 6 5 6 7 7 7 8 9 10 10 9 9 8 8 7 6 5 5 5 5 5 4 3 4 6 6 6 9 9 8 12 10 11 9 9 9 9 13 13 11 10 9 11 12 11 10 10 11 11 10
20 21 21 23 24 24 24 23 22 21 21 20 19 17 16 17 18 17 13 10 10 11 14 18 18 18 16 14 13 12 10 9 7 7 7 6 6 6 6 7 7 9 11 12 11 10 9 9 9 8 8 7 7 8 8 6 5 4 5 7 6 5 6 6 7 9 8 10 8 8 8 9 13 13 12 11 10 10 9 8 8 10 11 9 9
21 22 22 23 24 24 24 23 23 22 21 20 19 18 17 17 17 15 12 9 9 12 15 16 18 18 16 14 13 12 10 9 7 6 5 6 7 6 6 7 8 10 12 11 10 10 10 10 10 10 10 10 9 8 7 6 5 4 3 7 6 3 4 4 6 9 8 9 7 8 9 10 12 13 13 11 10 10 8 7 8 10 10 9 10
22 24 23 23 23 24 23 23 23 22 21 20 20 19 18 17 15 13 10 10 9 13 18 18 18 17 15 14 13 13 12 10 8 6 5 7 7 7 7 8 9 10 11 9 8 9 10 11 11 9 8 7 5 3 2 2 3 3 2 5 5 1 5 3 7 8 8 9 8 9 9 11 12 14 14 12 10 9 9 7 8 10 10 10 11
25 25 23 23 23 24 24 23 22 21 20 21 21 20 19 17 14 11 9 10 11 16 21 20 18 17 15 15 14 14 13 12 11 8 6 7 7 8 8 9 10 10 9 8 8 7 7 8 9 7 4 2 0 3 4 3 1 1 2 3 2 3 5 1 7 6 7 9 8 9 9 11 12 13 15 13 10 9 10 8 7 8 10 11 11
26 25 23 23 23 24 24 23 22 21 20 21 21 19 18 16 14 11 10 11 12 18 22 21 20 18 16 16 16 15 14 13 11 8 7 7 8 8 9 9 9 8 6 5 5 5 4 5 5 4 2 0 1 3 4 1 1 1 1 2 1 2 1 5 5 6 8 9 8 8 9 10 11 13 15 14 11 9 9 8 7 8 10 11 11
25 23 23 23 23 23 23 24 24 22 21 21 20 19 16 14 13 12 12 12 14 19 23 22 21 19 17 16 15 14 13 12 10 8 8 8 8 8 8 8 7 6 5 4 3 2 1 1 1 0 2 2 2 2 2 3 3 3 1 2 3 2 3 4 4 7 9 9 9 9 9 10 11 13 14 13 11 10 9 8 8 8 9 11 11
23 21 21 22 23 24 24 24 24 23 22 21 20 18 16 15 14 14 14 14 16 19 20 20 20 19 18 16 14 13 12 11 11 9 9 9 8 9 9 8 8 6 6 4 3 2 3 2 3 4 4 3 3 1 3 2 3 4 1 1 2 1 2 5 5 7 8 7 9 9 10 11 12 13 14 13 11 10 9 8 8 7 8 10 10
22 21 21 21 22 23 23 22 23 23 22 20 20 19 18 17 15 15 15 16 18 18 18 19 18 16 15 15 13 12 11 10 10 9 9 9 7 8 8 8 8 7 6 5 3 2 3 3 4 4 3 1 2 1 2 2 1 3 0 2 0 3 4 8 8 9 8 7 8 10 10 11 12 11 13 13 10 10 9 8 9 7 7 8 9
22 23 21 20 22 24 23 20 22 23 21 19 20 19 19 18 16 15 16 18 19 18 17 18 17 14 13 13 13 13 11 9 8 8 9 8 6 6 7 7 7 7 6 5 5 4 2 1 1 1 2 1 1 2 1 3 2 1 1 3 3 6 6 10 10 9 11 9 9 11 11 12 12 10 11 12 10 10 10 8 9 7 5 7 8
24 23 20 20 24 26 24 21 21 22 22 20 20 20 19 18 17 16 17 18 18 17 18 18 16 14 13 12 13 13 11 9 8 8 8 8 7 7 7 7 7 6 6 5 5 4 2 1 0 2 2 1 0 1 2 3 3 3 3 5 5 7 7 9 7 5 10 11 9 12 12 12 12 9 10 12 10 9 10 9 9 7 5 6 6
23 21 20 23 25 27 25 23 24 25 24 22 22 21 19 19 18 17 16 17 18 19 19 18 17 15 14 13 12 12 11 10 10 9 8 8 8 7 6 6 6 6 6 6 5 4 3 2 1 2 1 2 2 1 2 3 4 5 6 7 6 7 7 5 4 3 8 12 11 10 10 10 11 9 9 12 11 9 9 9 9 8 7 7 5
22 19 18 23 25 27 26 24 25 26 25 24 23 21 19 20 18 16 17 18 20 20 19 18 18 16 15 14 13 12 12 12 12 10 9 8 8 7 6 5 4 5 5 5 5 3 4 3 2 2 2 2 2 1 1 3 4 5 7 8 7 8 9 6 5 6 7 11 14 11 9 10 12 10 9 11 12 10 9 9 9 8 8 7 6
23 18 16 22 25 27 25 22 23 24 23 23 24 22 20 19 18 17 17 19 20 19 17 17 16 14 12 12 11 11 11 12 12 11 10 9 7 6 5 5 4 4 5 5 3 3 3 4 3 3 3 2 1 1 1 3 4 4 7 8 9 10 11 11 11 11 9 11 15 12 11 12 12 10 10 12 13 11 9 9 8 8 8 7 7
20 15 14 21 24 24 24 23 23 24 23 24 24 23 21 20 19 17 17 17 18 16 15 16 15 13 11 10 9 9 10 10 9 11 11 9 7 6 5 5 4 4 5 4 3 3 3 3 3 3 3 2 2 3 2 3 4 4 7 9 11 12 12 14 14 13 11 13 14 11 12 13 12 10 10 12 13 11 9 9 8 8 8 7 6
19 18 18 20 21 20 22 24 25 26 25 25 26 25 23 20 19 19 19 18 16 14 14 13 13 12 11 10 9 10 10 10 11 12 11 8 6 6 6 6 5 4 5 4 3 3 3 3 3 2 2 3 4 4 4 3 3 5 7 9 11 12 13 14 15 13 11 12 12 12 14 14 13 11 10 12 13 12 9 9 9 9 9 9 9
22 27 29 26 24 21 22 25 26 27 27 27 27 26 23 20 21 20 19 17 14 13 12 11 10 10 9 8 8 9 10 12 14 13 10 7 6 7 8 7 5 5 5 4 3 2 3 4 4 2 3 5 5 5 5 3 4 5 7 10 12 13 14 14 14 14 12 12 12 13 15 15 13 12 11 11 13 12 11 10 10 11 11 11 11
22 25 27 27 26 23 25 26 26 27 27 27 26 25 23 21 21 19 17 16 14 12 11 10 10 8 8 8 9 10 11 12 12 12 9 6 5 6 7 7 6 5 4 4 4 2 2 4 5 4 4 5 4 4 5 4 5 7 8 11 13 12 12 12 13 12 12 12 11 11 13 15 14 13 12 11 13 14 13 12 11 11 11 9 10
19 20 23 26 26 25 27 28 28 28 28 28 27 25 23 21 20 18 17 17 14 13 12 11 9 8 9 9 10 11 11 10 10 11 9 7 7 7 8 8 7 6 5 5 5 3 3 3 5 5 5 5 4 4 5 5 6 8 9 12 14 13 10 9 10 10 10 13 13 11 11 12 12 13 12 11 12 13 13 12 10 11 11 11 12
20 22 25 28 27 27 28 29 29 29 29 29 28 26 23 21 20 20 18 16 13 12 12 11 10 10 11 11 11 11 10 9 10 11 9 8 8 8 8 7 6 6 6 5 4 3 3 3 5 4 4 5 4 4 4 5 7 9 11 13 15 15 11 9 10 10 11 12 13 13 12 11 11 13 13 12 11 12 13 12 10 10 10 12 12
23 25 27 29 29 29 29 28 28 28 28 29 28 28 28 25 24 24 22 18 15 14 13 13 13 12 12 12 12 11 10 10 10 10 8 7 8 8 8 7 5 5 5 4 3 3 2 3 4 3 4 4 3 3 4 5 7 9 11 14 16 16 14 10 8 10 11 11 12 13 13 12 13 14 13 12 11 12 13 12 10 9 9 11 11
27 28 29 31 31 29 29 28 28 27 27 28 28 28 30 30 29 28 27 24 20 20 19 17 16 15 14 14 14 13 12 12 12 11 9 8 9 9 8 7 5 4 4 4 4 3 2 3 3 4 4 4 4 3 4 4 4 6 9 11 14 16 16 13 7 7 10 10 12 12 12 13 14 13 12 11 11 11 12 11 10 9 8 10 10
30 30 29 31 32 30 29 29 28 26 26 26 26 27 28 29 29 29 30 29 26 23 21 20 18 16 15 15 15 15 14 15 14 12 10 10 10 10 9 7 6 5 5 4 4 4 3 3 4 5 5 5 4 3 4 4 3 6 8 5 4 7 10 11 8 6 7 10 12 11 10 12 12 11 10 10 9 9 10 10 9 8 7 8 9
26 26 28 31 32 30 30 30 27 25 24 24 24 24 24 23 25 26 28 29 27 24 22 21 18 17 16 14 13 13 14 15 14 13 11 10 10 10 9 7 5 4 4 4 3 3 3 3 4 6 7 7 6 4 4 4 5 6 5 3 2 3 3 6 8 7 6 9 11 10 9 10 11 10 10 9 8 8 8 8 7 7 7 7 6
21 23 28 30 30 30 31 30 27 25 25 25 24 22 21 23 26 27 27 27 26 25 25 23 20 19 17 14 12 12 14 15 13 13 13 12 12 11 10 9 7 6 7 7 7 5 4 4 4 5 7 7 8 7 5 5 6 4 4 4 3 2 2 6 8 6 6 8 10 11 12 12 11 10 10 9 8 7 6 6 6 6 7 6 6
19 23 27 28 29 31 31 29 28 26 26 27 26 23 24 29 32 30 28 27 25 25 26 24 22 20 18 17 15 14 16 15 13 12 13 13 12 10 10 11 10 11 10 10 10 10 9 7 5 5 6 6 8 8 7 6 5 4 6 5 3 7 10 8 5 3 6 9 9 12 14 14 12 10 11 11 10 9 7 7 7 7 8 8 8
21 26 27 26 28 29 29 29 27 26 28 30 28 25 27 29 30 29 28 27 25 24 25 24 22 21 20 19 17 16 17 17 15 14 14 13 11 9 9 10 10 11 12 11 11 12 11 9 7 6 7 6 7 9 9 7 7 6 6 6 9 15 17 12 7 4 4 6 7 9 12 12 12 10 11 13 11 10 10 10 10 10 10 9 8
25 27 27 26 27 27 27 27 26 26 29 30 28 26 27 27 27 28 28 26 24 23 25 24 22 21 21 19 17 17 16 14 14 15 13 11 10 8 8 11 12 12 13 13 12 12 12 12 11 10 10 8 9 11 10 8 9 9 8 9 12 14 16 17 16 13 7 3 4 6 9 11 11 11 13 15 15 15 14 13 12 10 9 8 8
26 27 27 27 27 27 26 26 26 27 29 30 28 25 25 26 28 28 26 24 24 26 27 24 21 21 20 17 16 16 15 14 14 14 12 12 10 11 11 15 16 14 13 13 13 13 13 13 14 13 13 11 11 11 10 8 9 9 10 12 14 14 16 18 19 18 12 7 3 2 7 10 10 11 14 16 16 16 15 13 11 9 9 9 10
24 26 25 25 26 27 27 28 28 28 29 28 26 24 24 26 27 27 26 27 28 28 27 23 21 20 20 19 18 17 16 16 15 13 13 13 12 14 16 18 17 15 14 14 14 14 13 13 13 13 12 12 11 11 12 11 10 9 10 13 15 16 16 15 16 18 13 9 7 5 8 8 8 11 14 17 17 14 13 12 11 11 12 14 14
21 22 21 23 25 25 26 28 27 26 28 26 24 25 25 25 26 28 29 31 30 28 26 24 23 23 22 22 20 18 17 18 18 17 16 15 14 16 19 18 17 16 16 15 15 14 13 13 13 12 12 13 13 13 14 15 15 14 11 11 14 15 15 15 17 18 13 10 9 6 8 10 10 12 15 18 18 15 13 13 14 15 15 16 16
Wind_Direction
146 148 145 147 149 151 150 147 146 150 151 150 148 145 143 142 141 139 139 138 134 128 121 117 113 112 110 111 116 117 114 115 114 113 112 110 107 104 103 102 99 99 100 100 101 100 94 91 90 88 86 87 87 88 90 88 84 87 90 88 90 91 88 87 86 83 83 84 80 73 69 66 66 75 79 81 84 90 95 84 79 84 80 74 74
148 145 146 148 150 152 151 149 149 152 152 151 149 146 145 145 143 141 141 139 135 129 122 118 116 115 113 116 120 119 116 115 113 112 111 110 108 106 106 105 100 99 101 102 100 94 90 93 92 89 90 92 91 91 91 88 86 92 95 93 93 92 90 90 90 86 82 82 83 78 71 66 66 73 80 82 85 91 91 84 83 86 81 76 76
147 144 147 149 149 152 151 150 150 153 153 152 150 148 147 147 145 143 142 140 137 130 123 120 119 119 117 119 124 123 119 117 115 113 112 111 109 107 107 106 104 103 103 102 97 90 91 97 96 92 93 94 94 93 91 91 94 100 102 101 99 97 96 96 97 92 82 77 80 81 75 68 65 72 78 82 88 92 89 85 83 81 78 76 75
147 144 147 148 148 151 151 151 153 154 154 153 151 149 149 149 147 146 145 142 139 132 126 123 122 123 122 122 125 127 123 120 119 117 114 113 112 110 109 109 107 106 106 102 97 92 93 98 98 94 95 94 94 95 91 94 103 106 105 104 103 101 100 100 101 98 84 73 74 77 77 71 66 72 76 81 88 91 91 89 81 77 78 76 74
146 146 148 147 148 151 153 153 154 155 155 154 152 150 151 152 150 149 147 145 141 135 129 124 125 126 127 127 126 129 127 124 121 120 120 120 119 117 115 115 112 110 108 103 101 97 95 97 97 97 98 98 96 97 96 101 108 109 107 105 105 104 102 105 107 108 95 71 67 72 76 72 68 74 77 80 85 89 94 93 84 77 82 81 74
146 148 148 147 148 152 155 155 155 156 156 155 152 153 155 155 153 152 149 148 143 137 131 127 127 128 131 132 131 132 131 129 125 124 124 123 120 120 120 119 117 112 108 106 106 102 98 96 97 99 100 101 99 99 104 110 112 110 110 109 108 105 103 108 108 115 111 71 68 76 78 73 70 76 78 81 85 90 95 96 89 76 79 84 76
145 147 148 148 150 153 156 156 156 157 157 156 155 156 158 159 156 154 152 149 144 138 134 129 128 130 135 135 135 136 134 132 130 130 126 123 122 124 124 122 120 115 112 113 111 108 102 100 100 98 103 107 103 107 111 115 116 113 112 112 108 103 100 100 94 94 92 66 81 89 85 79 78 79 79 82 86 91 95 94 92 82 76 81 78
142 145 150 150 150 154 157 157 158 159 159 158 158 160 162 162 158 155 153 150 146 141 137 132 130 133 138 140 139 139 137 135 135 134 130 129 130 128 124 122 122 122 123 121 116 114 107 105 103 100 107 109 107 112 118 120 118 116 114 112 107 101 93 85 74 62 54 80 108 103 89 85 86 84 81 84 87 91 95 95 93 89 84 81 82
140 146 151 151 150 155 160 159 160 161 160 161 162 164 165 164 159 155 154 151 148 145 141 134 132 136 141 143 143 143 142 141 139 136 136 136 135 130 129 131 132 131 130 126 123 118 113 111 107 107 112 108 110 116 121 125 121 118 115 113 106 95 85 77 69 64 77 109 119 109 94 92 92 87 85 85 88 91 95 100 96 89 85 81 85
142 148 152 152 153 158 162 160 163 163 162 164 165 167 166 164 159 156 156 153 151 148 142 137 135 138 143 146 147 147 146 146 144 141 141 138 136 137 142 143 139 135 130 127 123 116 117 116 114 117 113 101 112 119 124 127 124 120 115 110 100 90 85 79 75 81 100 117 118 108 97 96 97 92 89 87 89 93 93 97 95 88 89 84 84
146 150 153 154 155 159 161 162 164 164 165 166 167 168 167 164 159 158 158 155 152 148 142 138 138 142 145 146 148 150 150 150 148 146 144 141 141 145 147 143 137 132 126 122 119 117 119 121 125 124 99 87 110 116 124 129 125 121 114 106 95 91 88 82 82 97 114 120 114 102 92 93 98 96 91 91 92 93 92 92 90 90 95 90 85
149 151 153 154 154 159 161 163 165 165 166 166 168 166 165 163 160 160 158 156 150 144 141 140 142 144 143 143 146 148 151 151 150 150 147 146 147 147 141 133 128 124 122 121 122 125 127 132 134 123 98 98 110 109 120 130 126 120 113 104 95 91 88 82 84 108 123 120 107 91 87 94 98 98 94 94 93 93 93 92 91 91 94 93 89
149 152 154 154 154 159 160 163 165 166 166 165 166 164 164 161 159 158 156 153 146 141 141 142 142 142 142 143 146 148 150 151 152 152 149 148 146 143 136 129 125 122 124 126 127 128 133 138 131 120 108 120 121 104 112 125 126 120 112 104 96 90 90 81 84 119 132 120 103 88 84 93 96 96 96 97 97 95 94 93 92 92 92 92 90
149 155 155 154 152 156 159 162 164 163 162 163 165 163 162 158 155 155 154 151 143 142 142 142 143 144 146 146 146 146 148 147 148 149 148 150 148 147 139 130 126 124 128 130 129 129 133 135 130 121 108 133 138 107 99 116 123 120 115 108 95 89 90 76 84 126 135 117 104 88 84 96 101 98 97 97 95 95 96 96 93 92 92 92 91
148 155 154 151 149 152 156 160 160 158 159 161 161 160 159 157 155 155 154 149 142 142 143 142 143 145 148 147 146 143 140 138 140 143 142 144 149 151 143 133 127 127 133 135 132 129 130 129 131 117 100 127 134 104 77 98 119 123 121 115 97 85 85 74 91 130 133 117 107 90 90 102 108 104 103 102 97 97 97 98 95 93 92 92 94
149 154 152 148 147 149 152 154 155 155 156 158 158 159 159 157 158 160 155 146 141 142 143 144 145 147 148 146 146 142 137 133 134 136 133 134 142 146 141 135 130 127 128 129 128 129 136 139 134 106 95 112 114 95 66 74 113 128 129 123 104 80 86 78 92 130 131 119 108 91 94 104 111 110 106 103 104 103 98 98 96 95 95 94 95
150 154 152 148 148 149 151 152 152 152 152 155 158 160 160 160 163 162 156 148 143 144 147 151 155 153 149 146 145 143 139 134 131 130 132 132 136 138 132 130 130 129 126 123 130 138 148 152 135 101 96 101 90 81 82 86 94 131 140 138 119 81 88 70 79 133 134 115 105 90 91 102 113 114 108 102 102 101 98 98 96 97 97 95 94
150 154 152 148 149 150 151 151 151 151 151 154 158 160 163 165 167 163 155 149 146 148 154 161 166 158 152 151 146 147 145 137 130 128 134 132 131 132 126 125 126 130 129 124 133 138 132 141 135 106 100 86 66 67 86 99 75 124 152 166 138 93 92 60 76 139 141 116 103 88 88 97 110 113 112 109 104 101 103 103 99 97 96 95 94
149 152 149 148 149 149 151 152 152 152 153 156 157 161 166 166 167 163 153 147 148 156 166 169 169 161 157 154 147 150 150 141 137 135 136 133 129 126 121 119 118 122 124 120 120 113 103 116 126 111 102 84 74 71 79 102 87 125 166 180 148 109 88 54 86 143 139 118 101 88 88 94 109 115 116 115 106 100 101 101 100 99 98 99 96
148 147 145 147 149 150 152 153 154 155 157 158 160 163 165 165 162 156 150 152 158 169 174 165 163 162 160 158 151 149 149 146 145 144 142 138 130 122 114 107 111 115 110 106 102 96 92 99 107 106 102 93 89 80 84 102 97 133 168 175 155 115 71 49 113 150 134 118 100 90 93 98 114 118 118 115 103 98 101 101 102 101 99 100 97
146 145 144 148 150 151 151 152 154 159 162 162 163 163 163 162 154 146 145 156 167 178 172 158 157 160 158 160 156 149 151 154 149 150 154 147 132 120 111 104 114 114 100 95 92 90 92 96 99 99 98 96 102 97 98 99 92 128 164 174 156 109 64 54 136 153 134 123 105 95 95 105 121 124 121 116 105 100 105 106 103 103 102 103 102
145 145 148 151 150 148 147 150 154 161 164 163 162 160 160 155 148 148 146 152 165 170 163 154 155 155 154 156 155 149 149 153 154 159 160 147 127 109 104 111 120 109 95 91 90 91 90 90 90 93 99 104 109 106 103 99 96 117 163 178 168 113 59 50 151 162 143 129 112 105 106 116 128 128 123 119 114 109 110 104 100 104 106 108 104
145 147 152 153 148 144 147 152 155 160 162 160 158 155 153 148 149 153 151 151 160 163 156 150 154 155 152 153 153 149 151 157 163 164 153 136 122 107 110 122 121 103 92 89 91 94 91 88 89 94 101 107 110 103 94 88 96 108 157 188 186 141 35 29 168 176 152 136 120 114 117 124 131 130 126 124 121 119 117 98 97 107 104 105 103
151 154 155 151 146 143 148 154 157 161 160 159 157 152 149 148 149 151 151 152 149 153 156 155 159 159 156 158 159 158 162 162 158 159 148 133 126 123 126 123 113 99 90 93 101 103 99 94 91 94 97 104 110 92 55 34 95 99 106 190 186 149 338 350 169 176 157 141 127 120 122 130 134 131 130 131 128 123 122 106 99 106 102 103 106
156 159 156 148 145 145 150 156 160 162 162 161 157 153 152 148 144 149 154 155 153 153 156 159 162 163 164 167 166 162 163 158 154 162 155 143 140 133 124 113 107 102 101 110 118 116 110 104 94 95 105 122 345 326 317 317 180 98 53 170 170 2 330 164 160 182 168 146 131 126 126 133 138 137 134 133 135 129 127 120 106 104 100 101 104
159 161 157 148 145 149 155 160 163 164 161 160 157 155 153 148 147 156 158 156 165 162 157 160 164 169 175 174 169 165 162 157 159 163 156 153 147 131 117 109 108 111 123 138 136 131 126 126 108 104 129 172 337 336 342 22 148 210 329 243 257 10 173 154 156 188 173 152 140 135 134 137 136 135 136 136 141 139 133 129 117 109 100 98 101
159 162 156 148 148 153 160 166 165 158 154 158 161 156 149 149 160 170 167 161 166 165 159 162 169 174 178 177 173 169 164 159 164 167 160 157 148 139 134 129 131 134 156 192 203 203 191 139 136 260 305 317 310 2 59 116 144 168 216 260 234 243 222 195 179 179 170 154 142 139 140 139 135 134 137 139 142 141 137 131 125 118 101 96 100
154 155 148 141 144 153 165 170 163 149 151 163 162 153 147 152 166 172 169 163 163 165 163 167 173 178 181 180 175 172 168 164 168 170 162 162 165 164 161 157 162 168 184 211 231 247 280 289 280 284 295 299 281 354 64 101 162 181 136 62 201 243 211 201 189 177 170 153 141 142 145 138 135 136 138 141 140 137 134 128 128 130 111 98 99
142 139 130 126 139 157 170 170 159 151 154 161 156 149 148 152 161 167 166 162 163 166 167 171 176 180 184 183 179 176 174 173 173 173 169 173 185 182 177 174 178 195 212 222 233 251 287 285 279 283 268 255 285 313 27 44 131 194 167 39 66 35 95 155 155 159 167 162 147 144 147 143 140 140 138 142 143 137 132 124 126 138 126 104 99
115 119 115 123 148 165 174 168 157 157 156 153 152 147 146 154 161 165 162 161 165 168 171 178 182 182 183 184 188 184 182 189 183 177 176 180 188 185 185 190 197 215 230 231 241 253 276 281 284 305 215 173 360 300 5 45 62 176 321 351 9 34 75 134 133 145 158 157 153 148 147 146 145 146 138 138 145 139 132 125 125 139 137 115 104
108 119 124 136 154 164 172 169 156 158 158 151 150 147 147 156 161 163 155 152 160 170 178 183 181 181 183 185 190 188 190 199 194 187 186 188 196 192 189 199 205 216 230 230 239 242 213 227 299 77 151 148 118 272 21 49 42 49 29 10 24 39 65 128 128 144 162 152 149 150 149 149 150 152 141 138 146 142 135 130 128 134 136 133 121
116 122 135 148 157 161 166 169 160 156 157 150 148 150 152 153 154 158 155 155 163 172 180 181 177 180 185 188 190 191 193 197 199 199 191 193 200 196 197 202 201 204 215 218 228 230 210 216 173 94 162 188 187 228 4 34 42 50 46 38 48 51 60 121 125 128 165 156 150 150 148 154 160 160 150 144 146 145 140 139 136 134 137 144 139
117 114 136 159 162 160 162 166 159 153 152 149 149 150 150 150 151 156 159 164 169 170 175 177 178 184 191 196 197 198 198 197 202 201 190 190 196 197 202 197 192 193 196 204 215 217 216 219 187 130 156 200 195 183 17 27 39 49 52 53 61 69 73 82 101 114 139 154 160 161 152 161 172 169 158 149 149 150 146 145 142 131 132 140 134
129 128 144 162 161 159 161 162 156 153 152 149 151 151 149 150 152 159 164 168 169 167 173 177 180 187 196 202 203 201 198 197 204 201 191 191 195 197 192 193 200 182 171 181 188 179 203 217 195 165 157 176 170 86 41 37 35 49 70 72 66 78 86 81 99 114 111 146 163 164 154 160 172 171 161 156 156 158 150 147 147 132 129 136 134
132 140 153 158 157 160 160 156 153 154 152 146 148 150 150 152 154 161 165 167 169 169 176 180 179 184 192 202 207 203 198 200 202 193 191 193 192 194 185 186 190 164 159 156 153 157 172 187 176 167 158 147 88 50 33 38 41 63 87 83 72 82 90 87 106 119 116 139 155 157 158 163 173 173 166 161 162 163 155 146 146 142 135 140 148
139 153 161 155 155 162 159 154 150 145 141 139 143 148 148 149 151 154 156 161 167 170 174 175 179 185 189 198 203 202 202 199 193 186 187 186 178 186 175 164 159 148 148 135 133 138 130 143 146 146 132 96 66 55 37 33 64 86 95 86 77 86 94 95 110 124 131 147 155 158 161 165 174 176 169 165 165 164 158 149 150 163 161 160 163
164 161 158 156 156 159 156 153 148 140 136 136 140 144 144 146 148 150 155 163 171 175 173 169 178 185 186 193 191 191 188 180 184 184 181 173 170 177 162 151 152 150 151 140 137 125 114 135 129 123 121 87 60 51 36 40 93 107 110 94 82 88 95 98 109 123 137 151 160 162 164 169 174 176 171 166 166 164 165 163 162 175 179 174 168
170 160 154 155 154 154 154 154 151 145 140 139 141 143 143 145 149 150 156 165 171 172 167 160 164 169 177 188 179 172 168 165 176 183 177 159 155 164 153 149 154 159 166 152 156 154 125 134 128 124 123 102 71 53 49 70 107 117 114 99 91 94 97 99 107 121 137 148 159 164 167 173 176 178 174 164 166 169 172 175 171 171 173 170 171
160 156 153 155 153 153 156 156 155 151 146 143 142 143 143 145 148 146 151 161 163 162 158 149 147 150 159 167 161 158 161 160 165 176 176 156 153 158 152 153 155 164 176 164 166 164 148 147 130 116 113 111 88 71 80 99 115 118 107 99 100 100 98 100 110 125 138 146 158 168 169 173 177 184 183 169 171 175 173 179 179 167 160 158 164
157 157 156 158 157 155 156 155 155 154 151 147 143 142 142 143 144 140 144 151 151 153 151 145 151 159 155 151 147 146 150 148 153 169 172 156 154 154 151 158 162 171 177 168 157 136 145 155 132 114 110 121 107 90 101 113 121 115 101 100 101 94 89 94 110 124 132 139 150 162 168 172 180 186 185 179 184 186 179 182 183 169 162 164 166
162 160 158 160 160 158 157 156 157 157 155 152 148 145 144 145 146 147 149 147 141 145 150 155 161 160 154 152 151 151 151 151 155 164 164 149 148 145 146 152 153 161 167 165 152 130 127 128 143 159 143 148 150 130 131 130 129 116 101 95 89 87 88 91 105 113 118 132 144 155 164 172 181 185 183 184 193 195 189 188 186 178 173 178 181
166 166 161 160 161 159 157 157 159 159 157 155 151 148 149 149 150 154 158 157 154 153 155 155 150 145 149 153 155 155 150 145 141 137 130 122 127 132 133 127 117 126 144 154 148 139 135 125 162 185 165 164 168 158 157 147 134 122 112 96 84 85 87 87 97 102 101 116 132 145 161 167 173 178 181 183 187 192 195 195 195 196 188 186 190
170 167 160 157 158 159 157 157 157 156 154 152 149 148 149 148 149 151 155 158 158 154 151 147 142 139 139 138 140 142 137 133 128 121 118 114 115 119 118 110 101 107 119 130 136 140 153 165 177 183 173 163 151 154 175 180 159 126 116 106 95 94 82 77 76 77 89 103 113 129 154 165 165 167 173 175 173 180 190 195 200 201 190 187 195
169 161 156 157 159 160 159 158 155 153 154 152 149 150 152 152 152 152 151 151 150 148 145 145 146 144 140 137 134 134 132 132 131 128 124 121 122 121 124 124 119 131 125 105 118 166 182 175 165 172 175 162 145 154 184 185 170 139 111 100 126 121 87 86 76 53 66 96 103 111 125 145 151 151 160 164 161 166 174 180 184 180 174 177 188
165 159 160 161 161 160 161 160 154 154 157 154 150 148 150 148 145 144 144 144 145 148 148 149 150 148 148 149 144 137 135 135 138 140 135 131 131 132 139 140 128 137 138 112 106 122 145 147 134 154 178 172 154 154 164 164 160 148 131 126 107 85 119 131 108 58 43 74 95 106 107 116 127 133 138 139 138 141 146 151 152 155 159 153 146
167 166 166 165 164 164 164 161 156 157 159 154 148 145 146 144 140 139 141 144 148 150 150 149 150 149 143 138 136 135 135 132 128 133 139 136 132 132 139 140 125 121 124 118 112 106 109 122 126 137 158 166 160 149 141 144 147 138 137 133 113 135 146 142 120 66 54 60 76 101 106 106 109 118 125 125 125 127 124 124 125 131 135 133 132
172 173 171 169 168 167 167 165 161 160 159 154 150 148 149 149 148 147 146 149 151 150 150 148 147 146 139 134 134 131 131 129 122 124 130 131 132 133 137 142 137 127 119 113 112 105 101 107 115 125 134 146 152 138 128 133 133 125 128 116 109 133 146 146 136 131 98 54 57 91 103 103 102 105 113 114 115 115 113 114 116 118 120 118 117
175 177 176 174 172 170 169 168 166 163 159 154 153 155 156 155 154 152 151 155 156 152 150 148 147 145 136 132 131 129 129 129 129 131 132 135 133 122 133 143 137 130 123 113 108 106 106 106 108 113 117 121 122 118 120 124 117 114 120 115 112 125 141 146 140 131 124 89 59 82 96 102 103 99 100 104 104 102 103 108 112 112 111 108 103
174 177 177 176 175 172 169 169 169 166 161 157 158 161 160 157 156 157 158 158 155 150 148 146 147 145 137 132 131 130 130 129 133 137 140 146 129 102 124 141 130 123 122 116 113 109 107 107 106 107 107 109 108 104 106 109 108 114 118 115 115 117 124 135 135 125 122 131 120 92 111 109 105 106 106 105 103 100 102 105 106 105 100 97 98
172 176 178 178 176 173 173 172 169 167 165 165 166 164 161 160 161 162 157 149 146 147 146 145 147 146 140 135 134 133 134 134 136 138 139 142 125 104 117 130 123 114 111 111 115 112 108 110 111 110 109 109 109 101 95 89 92 112 128 127 124 122 119 124 131 129 125 125 126 143 150 136 118 116 117 117 113 106 104 105 104 102 98 96 98
171 175 178 182 180 177 176 174 172 170 170 172 172 168 168 169 167 161 150 146 147 147 147 147 147 145 140 137 136 135 134 134 132 131 133 134 124 112 114 119 116 110 107 109 113 111 108 111 114 116 109 103 106 103 91 83 86 97 113 131 134 133 135 137 141 141 136 132 132 140 149 143 135 134 131 126 125 116 101 97 100 99 97 98 98
Height
763 762 763 764 767 768 771 772 774 776 777 779 780 783 784 785 786 788 789 790 792 793 793 794 795 796 797 798 800 801 802 803 804 805 805 806 807 808 809 811 812 813 814 815 816 817 818 818 819 819 820 820 821 822 822 822 822 823 823 824 825 826 826 826 825 825 825 825 826 828 830 831 830 827 824 823 822 823 824 825 826 825 825 826 825
762 763 763 764 767 768 771 772 775 776 778 780 781 783 784 786 787 789 790 791 793 793 794 795 796 797 798 800 801 802 803 804 806 806 807 808 809 810 811 812 813 814 815 816 817 818 819 819 820 820 821 821 822 823 823 823 824 824 824 825 826 827 828 828 827 827 827 827 827 829 831 833 832 830 827 825 824 825 826 827 827 827 827 827 827
761 764 764 765 767 769 772 773 776 777 779 780 782 784 785 787 788 790 791 792 793 794 795 796 797 798 800 801 802 804 805 806 807 808 809 809 810 811 812 813 814 815 816 817 818 819 820 820 821 821 822 822 823 824 824 824 824 825 825 826 827 828 829 829 829 829 829 829 829 830 832 833 834 833 830 828 826 826 827 828 828 828 828 829 829
761 764 766 766 768 770 772 774 776 777 780 781 783 784 786 788 789 790 791 793 794 795 796 797 798 799 801 802 804 805 806 807 808 809 810 811 811 812 813 814 815 816 817 818 819 820 821 821 822 822 823 823 824 824 825 825 825 826 826 827 828 829 830 830 830 831 831 831 832 832 833 834 835 835 833 831 829 828 829 830 830 830 830 830 831
761 764 766 767 769 771 773 775 777 778 780 782 784 785 787 788 789 791 792 794 794 796 797 798 799 800 802 803 805 806 807 808 809 810 811 812 813 813 814 815 816 817 818 819 820 822 822 823 823 823 824 824 825 825 825 826 827 827 827 828 829 830 831 831 832 832 832 832 834 835 834 834 835 836 835 833 831 830 831 832 832 831 831 832 832
761 764 767 768 770 771 773 775 777 779 781 783 785 786 788 789 790 792 793 794 795 797 798 799 801 802 803 805 806 807 809 810 810 812 812 813 814 815 815 816 816 817 818 819 821 822 823 824 824 824 825 825 825 825 826 827 827 828 828 829 830 831 831 832 832 833 833 834 836 837 837 836 836 837 837 835 834 833 832 833 833 833 832 833 834
762 765 767 768 770 772 774 776 778 780 782 784 786 787 788 789 791 792 794 795 796 798 799 800 802 803 804 806 807 808 810 810 812 812 813 815 816 816 817 817 817 818 819 820 821 823 824 825 825 826 826 826 826 826 827 827 828 828 829 830 830 831 831 832 833 833 834 836 838 839 838 837 837 838 838 837 836 835 834 835 835 835 834 835 835
763 766 767 769 771 772 774 776 778 780 782 785 786 787 789 790 791 793 795 796 797 798 800 801 803 804 805 807 808 809 810 811 812 813 814 815 816 818 818 819 818 818 819 820 822 823 825 826 826 827 827 827 826 826 827 827 828 828 829 831 831 831 832 832 833 834 835 836 838 839 839 838 839 839 839 839 837 836 835 836 836 836 836 836 837
766 766 767 769 771 773 775 777 779 781 783 785 786 788 789 790 792 794 795 797 798 799 801 802 804 805 806 808 808 809 810 812 813 813 814 815 817 818 819 820 820 819 819 820 822 823 825 826 827 827 828 828 827 827 828 828 828 829 830 831 831 831 832 832 833 834 835 836 838 839 839 839 839 840 841 840 839 838 837 837 837 837 837 838 838
766 766 768 769 771 774 775 777 779 781 784 785 787 788 790 791 793 795 796 798 799 800 802 803 805 806 807 808 809 810 811 812 813 814 815 815 817 818 819 820 821 821 821 821 822 824 825 827 828 828 829 829 829 828 829 829 829 830 830 831 832 832 832 832 833 834 836 837 838 839 839 839 840 841 841 841 840 839 838 838 838 838 839 839 839
766 767 769 770 772 774 775 778 779 782 784 786 788 789 791 792 794 795 797 799 800 802 803 805 806 807 808 809 810 811 812 813 814 815 816 817 818 819 820 821 822 823 822 823 824 825 826 827 828 829 830 830 830 830 830 830 830 831 831 832 832 832 832 833 833 835 837 838 839 839 840 840 840 842 842 842 841 841 840 840 840 840 840 840 840
767 768 769 771 773 775 776 778 780 783 784 787 789 790 792 793 795 797 798 800 801 803 805 806 807 808 809 810 811 812 813 814 815 816 817 818 819 820 821 822 823 824 824 825 825 826 827 828 829 830 831 831 832 832 832 831 831 832 832 833 833 833 832 833 834 835 838 838 839 839 840 840 841 842 842 843 842 842 841 841 841 841 842 841 841
768 769 770 772 773 776 777 779 781 783 785 787 790 791 793 795 797 799 800 802 803 805 806 808 809 810 811 812 813 813 814 815 816 818 819 819 820 821 822 823 824 825 826 826 826 827 828 828 829 830 831 832 833 833 833 833 833 833 833 834 834 834 833 834 835 836 838 838 839 840 840 841 842 843 843 843 843 843 842 842 843 842 843 842 842
768 769 771 772 774 777 778 781 782 784 787 789 791 792 795 797 799 801 802 803 805 807 807 809 810 812 813 813 814 815 816 816 818 819 820 821 821 822 823 824 824 826 827 827 827 828 829 829 830 831 831 832 833 834 834 834 834 834 834 834 835 835 834 834 835 837 838 838 839 840 841 842 843 844 844 844 844 844 843 843 844 844 844 844 843
769 770 772 774 775 778 780 782 783 786 788 790 792 794 797 799 800 802 803 805 807 808 809 811 812 814 815 816 817 817 818 818 819 820 821 822 822 823 824 824 825 826 827 828 828 829 830 830 831 831 832 833 834 835 835 835 835 835 835 835 835 835 835 835 837 838 839 839 839 840 841 842 843 844 845 845 845 845 844 844 845 845 845 845 844
770 771 773 775 777 779 781 784 786 788 789 791 794 795 798 799 801 802 804 806 808 810 811 812 813 815 817 818 818 819 819 820 821 821 823 823 824 824 825 825 825 827 827 828 829 830 831 831 832 832 833 833 834 835 836 836 836 836 836 836 836 836 836 837 838 839 840 840 840 841 841 843 844 845 845 845 846 845 845 845 845 846 846 846 845
771 773 774 776 778 780 782 785 787 789 791 793 795 797 799 800 802 803 805 807 809 811 813 814 813 814 817 819 820 820 821 821 822 823 824 825 826 826 826 826 826 827 828 828 829 830 831 832 832 833 833 834 835 835 836 837 836 836 837 837 837 837 837 838 839 839 841 841 841 842 842 843 844 845 845 846 846 846 846 846 846 847 847 847 847
772 774 775 777 779 781 783 785 788 790 792 794 796 798 799 801 803 804 806 808 810 812 814 815 815 815 817 819 820 821 822 822 823 824 825 826 827 827 827 827 827 828 828 828 829 830 831 832 832 833 833 834 835 835 836 837 837 837 837 838 838 837 837 838 839 839 841 841 841 842 843 844 845 846 846 846 847 847 847 847 847 847 848 848 848
773 775 776 779 780 782 784 786 789 790 793 795 797 799 801 802 804 806 807 809 811 813 814 815 816 817 818 819 819 821 823 823 824 825 826 827 828 828 828 828 828 828 828 828 829 830 831 832 832 833 833 834 835 836 837 837 837 837 838 838 838 838 838 839 839 840 841 841 842 842 843 844 845 847 847 847 847 847 848 848 848 848 849 849 849
775 776 778 780 781 783 785 787 789 791 793 795 797 800 802 804 805 807 808 810 812 813 815 816 816 817 819 820 820 821 823 824 825 826 827 828 829 829 829 829 829 829 829 828 829 830 831 832 832 832 833 834 835 836 837 837 837 837 838 838 838 838 839 840 840 841 841 841 841 842 843 844 846 847 848 848 848 848 848 849 849 849 849 850 850
776 778 780 781 782 784 786 788 790 792 794 796 799 800 803 804 806 808 809 811 812 814 816 817 817 817 819 820 821 821 822 824 825 827 828 829 829 830 829 830 830 830 829 829 829 830 831 831 832 832 833 834 835 836 837 837 837 837 838 838 838 839 840 841 841 841 841 841 841 842 843 844 846 847 848 848 848 849 849 849 849 849 850 850 850
777 778 781 782 783 785 787 789 791 793 796 797 800 801 804 805 807 809 810 811 813 815 816 818 818 818 820 821 822 822 823 824 825 827 828 829 829 830 830 831 831 830 829 829 829 830 831 831 832 832 833 834 835 836 836 837 837 838 838 838 839 839 840 841 841 841 841 841 841 842 843 844 845 847 848 849 849 849 849 849 849 849 850 850 850
776 778 781 783 784 786 788 790 792 794 796 798 801 803 805 807 809 810 811 812 813 815 817 819 819 819 820 820 822 822 824 825 826 828 829 829 829 830 831 831 831 829 829 829 829 830 830 830 831 832 833 834 835 836 836 837 837 838 839 839 839 840 840 841 842 841 841 841 841 842 843 844 845 846 848 849 849 850 850 850 849 850 850 850 850
776 778 780 783 785 787 789 791 793 795 796 799 801 803 806 808 809 810 811 811 813 816 816 818 819 820 820 821 822 822 824 825 827 828 829 829 829 831 832 831 830 829 829 829 829 829 830 830 831 833 834 835 836 836 837 837 837 837 839 839 839 840 840 841 842 841 841 842 842 842 843 844 845 846 847 849 849 850 850 850 850 850 850 850 850
775 778 780 784 786 788 790 791 793 794 796 799 801 804 806 808 809 810 810 811 813 815 815 817 819 820 821 821 822 823 824 826 827 827 828 829 830 831 831 831 830 829 829 829 829 830 831 832 832 833 833 834 835 836 836 836 837 838 839 840 840 840 840 841 842 841 841 842 842 843 843 844 845 846 847 848 849 850 850 850 850 850 850 851 851
775 778 780 784 787 788 789 790 792 794 796 799 802 804 806 808 808 809 810 811 813 814 814 816 818 820 821 821 822 824 825 825 826 827 828 829 830 831 831 831 830 829 829 829 830 831 832 832 832 832 833 834 834 835 835 835 837 838 839 840 840 840 839 840 841 841 841 842 843 843 844 844 846 847 848 849 849 850 850 850 851 851 851 851 851
775 778 781 785 787 789 790 789 791 794 797 800 802 804 806 807 808 809 809 811 812 813 814 815 818 820 821 822 823 824 825 826 826 827 829 829 830 831 831 831 829 829 829 829 830 831 832 832 833 833 834 834 834 835 835 836 837 838 839 839 840 840 839 840 841 842 843 843 844 844 845 846 846 848 849 849 850 850 851 851 851 852 852 852 852
776 779 783 785 788 790 789 791 794 796 798 800 802 805 806 807 808 808 809 810 811 812 814 816 818 819 821 823 824 825 826 826 827 828 829 829 830 830 831 830 830 830 829 830 831 831 832 833 834 834 834 835 835 835 835 836 836 836 837 838 839 839 839 839 841 842 844 845 846 846 847 847 848 848 849 850 850 851 851 852 853 853 853 853 853
776 780 783 786 790 790 790 794 796 798 799 800 803 805 806 807 807 808 809 811 811 812 814 815 818 820 822 824 825 826 826 827 828 828 829 829 830 830 830 830 830 830 830 831 831 832 832 833 833 834 834 835 835 835 836 836 836 836 837 837 838 839 839 840 842 843 845 846 847 848 849 849 849 850 850 850 851 852 852 853 854 854 853 854 854
777 780 783 786 788 789 792 796 797 798 800 801 803 805 806 807 807 808 809 810 811 812 814 815 818 821 823 824 825 826 827 828 828 829 829 829 830 830 830 830 830 830 830 831 831 832 833 833 834 833 834 835 835 836 836 836 836 836 836 837 839 839 841 842 843 845 846 847 848 849 850 850 851 851 851 851 852 852 853 854 854 855 854 854 854
778 780 783 785 786 787 791 795 796 798 800 802 804 806 806 806 807 808 809 810 811 813 814 815 818 821 823 824 825 826 827 828 828 829 829 830 830 830 830 830 830 830 830 831 831 832 832 833 834 834 835 835 835 836 836 837 836 837 837 838 839 840 842 842 843 845 845 848 851 852 852 852 852 852 852 853 853 853 853 854 854 855 855 855 855
779 780 783 783 784 785 789 793 795 797 799 801 803 805 806 807 808 809 809 811 811 812 814 816 819 821 822 823 824 826 827 828 828 828 829 830 829 830 830 830 830 830 830 830 831 832 832 833 833 834 834 835 836 836 836 836 837 837 838 838 839 840 842 842 843 844 844 846 851 853 853 853 853 853 853 853 854 854 854 854 855 855 856 856 856
782 783 784 784 784 785 789 792 794 796 798 800 801 804 806 807 808 809 810 810 811 812 814 817 819 820 821 823 824 825 826 827 827 828 828 829 829 829 830 829 830 830 830 830 831 831 832 832 833 834 834 835 835 835 836 836 837 837 837 838 839 840 841 842 843 843 844 844 847 849 849 852 853 853 853 853 854 854 854 854 855 855 856 857 856
783 784 784 785 786 787 789 792 794 797 798 800 801 804 806 807 808 809 810 811 811 813 814 817 819 820 821 822 824 825 826 827 827 827 827 828 828 829 829 829 830 830 830 830 831 831 831 832 833 833 834 834 835 835 836 836 837 837 837 838 839 840 840 842 843 843 844 845 847 849 849 851 853 853 853 853 854 854 854 855 855 856 856 857 857
785 787 789 789 789 789 790 792 795 798 800 801 802 804 806 807 808 809 810 811 812 813 814 816 818 820 821 822 823 824 825 826 827 827 827 827 828 828 829 829 829 830 830 830 831 831 831 832 832 833 834 834 834 835 836 836 837 837 838 839 839 840 841 841 842 843 844 846 847 848 850 851 852 852 852 853 853 854 854 855 856 856 856 856 856
784 786 791 793 792 791 792 794 797 800 801 803 803 804 805 807 808 809 810 811 812 813 815 817 818 819 820 822 823 824 825 826 826 826 826 827 827 828 829 829 829 829 830 830 830 830 831 831 831 832 833 833 834 835 835 836 837 837 838 839 840 841 841 841 842 843 845 846 846 846 848 849 849 850 851 852 853 854 855 855 855 854 854 854 854
778 781 784 787 789 791 793 795 797 799 801 802 803 804 805 806 807 808 809 811 812 813 815 817 818 820 820 822 823 824 825 825 825 825 826 827 827 827 828 828 829 829 830 830 829 830 830 830 831 831 832 833 834 835 835 836 836 837 837 838 839 840 840 840 841 843 844 845 845 845 846 848 848 849 850 851 852 853 853 853 852 851 850 851 852
779 784 784 784 787 790 792 794 796 797 799 801 802 804 805 806 806 808 809 810 811 813 814 817 819 820 821 822 823 824 825 825 825 825 826 826 826 827 827 828 829 829 829 830 830 830 830 830 830 831 832 832 833 835 835 836 836 837 837 839 839 840 840 841 841 842 843 844 844 844 845 846 847 848 849 851 851 852 852 851 851 851 851 852 853
784 787 786 786 787 790 791 792 794 795 798 800 801 803 805 806 807 808 809 810 811 813 814 816 818 820 821 822 824 824 825 825 825 825 825 825 825 826 826 827 828 829 829 829 830 830 830 830 830 831 832 833 834 835 836 836 837 837 838 839 840 840 840 841 841 841 842 843 844 844 844 845 846 848 849 850 851 851 851 851 851 851 852 852 852
784 784 784 785 787 789 791 792 794 795 797 799 800 802 804 806 806 807 808 809 811 812 814 815 818 820 821 822 823 824 824 824 825 825 825 825 825 825 826 826 827 828 828 829 829 829 830 830 830 831 832 833 834 835 836 836 837 838 839 840 840 841 841 840 840 841 842 843 843 843 844 845 846 848 849 850 850 851 851 851 851 851 852 851 851
780 781 781 784 786 789 791 793 795 796 797 798 799 801 803 804 805 807 808 809 811 812 814 816 819 821 822 822 823 823 823 823 824 824 824 824 824 824 825 826 826 827 828 828 829 829 830 830 831 832 833 833 834 835 836 836 837 838 839 840 841 842 842 840 839 840 842 843 843 844 844 846 847 848 849 849 850 851 852 852 852 852 852 852 852
776 778 780 783 787 789 791 793 795 796 796 797 798 799 801 803 805 807 809 810 811 813 814 817 819 820 821 822 822 823 823 823 823 823 823 823 824 824 824 825 826 827 827 828 828 829 830 831 832 833 833 834 834 835 836 836 837 838 839 841 842 844 845 842 839 840 842 844 844 844 845 846 847 847 848 849 850 851 852 852 853 852 852 853 853
775 778 781 783 786 789 791 793 795 796 796 797 798 799 801 803 805 807 808 810 812 814 815 817 818 819 820 821 821 822 822 822 822 822 823 823 824 825 825 826 827 827 828 828 828 829 830 831 832 833 834 834 835 836 836 837 838 838 839 841 843 845 846 845 841 840 843 845 845 845 845 845 846 847 848 849 850 851 852 853 853 853 853 854 854
778 780 782 783 785 787 789 791 792 794 796 797 798 799 801 803 805 807 809 811 813 814 816 817 818 819 819 820 821 822 822 822 822 823 823 824 825 826 827 827 828 828 829 829 829 829 831 832 833 834 834 835 835 836 837 837 838 838 839 841 843 845 848 848 845 843 844 845 846 845 845 846 846 847 848 849 851 851 852 852 853 853 853 854 854
780 781 781 782 783 785 787 788 790 792 794 795 797 798 800 802 804 807 810 812 813 814 815 816 818 818 819 820 821 821 822 822 822 823 824 824 826 827 828 828 829 829 829 830 830 831 832 832 833 834 834 835 836 837 838 838 838 838 839 841 843 846 849 848 847 847 846 845 846 846 846 847 847 848 849 850 851 851 852 852 853 853 854 854 854
780 781 781 782 782 783 785 786 788 790 792 793 795 797 798 800 802 805 808 810 812 813 814 815 816 818 819 819 820 821 821 821 822 823 824 825 826 827 828 829 829 829 830 831 831 832 832 833 834 834 835 835 836 837 838 838 838 839 839 839 840 842 845 846 848 850 849 847 848 848 848 848 849 850 850 851 851 852 852 853 854 854 854 855 854
778 779 781 781 782 782 784 785 787 788 790 791 793 795 796 799 801 803 806 808 810 812 814 815 816 817 818 819 820 821 821 822 823 824 825 826 827 828 829 829 830 830 831 831 832 832 833 834 835 835 835 836 836 837 838 838 838 839 839 840 839 840 842 844 846 848 850 851 850 849 850 850 850 850 851 851 852 852 853 854 854 855 855 855 855
776 777 779 781 782 782 783 785 787 788 790 791 792 794 795 797 800 803 806 808 810 812 814 815 816 817 817 818 819 821 822 822 824 824 825 826 828 828 829 830 830 831 831 832 833 833 834 835 835 836 836 837 837 838 838 838 838 839 839 840 841 842 842 843 844 845 848 852 853 851 851 852 852 852 852 853 853 854 854 855 855 856 856 856 856
776 777 778 780 782 783 784 785 787 788 789 791 792 794 795 797 800 803 805 808 810 811 813 814 816 816 817 818 820 821 822 823 824 825 826 827 828 829 829 830 831 832 832 833 833 834 835 836 836 837 837 838 838 839 839 839 839 839 840 841 842 843 843 845 846 845 847 851 854 854 853 853 854 854 855 855 856 856 856 856 857 857 857 857 857
778 778 779 780 782 783 784 785 786 788 789 791 793 795 797 798 800 802 804 807 809 811 813 814 815 815 816 818 820 821 823 824 825 826 827 828 829 830 829 831 832 832 833 834 835 836 836 837 837 838 838 838 839 839 839 840 840 840 840 841 842 842 843 845 847 847 847 849 852 854 854 854 855 856 857 858 858 858 858 858 858 858 858 858 858
780 780 781 781 783 784 785 785 787 788 790 792 794 796 798 799 800 802 803 806 808 810 812 813 814 815 816 818 820 822 823 824 825 826 828 828 829 830 831 832 833 833 834 835 836 837 837 838 838 839 839 839 839 840 840 840 840 840 840 841 841 842 842 844 846 846 847 848 851 853 855 855 856 858 859 860 860 860 860 860 860 860 860 859 859